Ottumwa, IA

3:02 AM CDT on April 29, 2017 (GMT -0500)
Ottumwa Industrial

Weather History for KOTM - January, 2015

Change the Weather History Date:

Wednesday, January 21, 2015

  Actual Average Record
Temperature  
Mean Temperature 36 °F 22 °F  
Max Temperature 40 °F 32 °F 63 °F (1957)
Min Temperature 31 °F 13 °F -21 °F (1970)
Degree Days  
Heating Degree Days 29 43  
Month to date heating degree days 918 897  
Since 1 July heating degree days 3469 3402  
Cooling Degree Days 0 0  
Month to date cooling degree days 0 0  
Year to date cooling degree days 0 0  
Moisture  
Dew Point 27 °F    
Average Humidity 75    
Maximum Humidity 85    
Minimum Humidity 64    
Precipitation  
Precipitation 0.00 in 0.02 in 1.22 in (1916)
Month to date precipitation 0.10 0.63  
Year to date precipitation 0.10 0.63  
Sea Level Pressure  
Sea Level Pressure 30.12 in    
Wind  
Wind Speed 13 mph (WNW)    
Max Wind Speed 21 mph    
Max Gust Speed 27 mph    
Visibility 10 miles    
Events      
T = Trace of Precipitation, MM = Missing Value Source: NWS Daily Summary

Daily Weather History Graph

Daily Weather History Graph

Search for Another Location

Airport or City:

Trip Planner

Search our weather history database for the weather conditions in past years. The results will help you decide how hot, cold, wet, or windy it might be!

Date:

Astronomy

Jan. 21, 2015 Rise Set
Actual Time 7:29 AM CST 5:12 PM CST
Civil Twilight 6:59 AM CST 5:42 PM CST
Nautical Twilight 6:26 AM CST 6:16 PM CST
Astronomical Twilight 5:53 AM CST 6:49 PM CST
Moon 7:58 AM CST (1/21) 7:02 PM CST (1/21)
Length of Visible Light 10h 43m
Length of Day
9h 43m
New Moon, 2% of the Moon is Illuminated
Jan 21
New Moon
Jan 26
First Quarter
Feb 3
Full
Feb 11
Last Quarter
Feb 18
New

Hourly Weather History & Observations

Time (CST) Temp. Windchill Dew Point Humidity Pressure Visibility Wind Dir Wind Speed Gust Speed Precip Events Conditions
12:53 AM 37.9 °F 30.5 °F 28.9 °F 70% 29.97 in 10.0 mi West 11.5 mph - N/A   Overcast
1:46 AM 37.0 °F 28.1 °F 27.0 °F 67% 29.96 in 10.0 mi WNW 15.0 mph 27.6 mph N/A   Mostly Cloudy
1:53 AM 36.0 °F 26.7 °F 26.1 °F 67% 29.98 in 10.0 mi WNW 15.0 mph 24.2 mph N/A   Mostly Cloudy
2:10 AM 34.0 °F 26.0 °F 26.1 °F 73% 29.97 in 10.0 mi WNW 10.4 mph - N/A   Scattered Clouds
2:53 AM 34.0 °F 23.0 °F 27.0 °F 75% 29.99 in 10.0 mi WNW 18.4 mph 26.5 mph N/A   Scattered Clouds
3:01 AM 33.1 °F 22.2 °F 27.0 °F 78% 29.98 in 10.0 mi WNW 17.3 mph 26.5 mph N/A   Mostly Cloudy
3:53 AM 33.1 °F 24.4 °F 27.0 °F 78% 30.00 in 10.0 mi WNW 11.5 mph - N/A   Overcast
4:10 AM 33.1 °F 24.4 °F 27.0 °F 78% 29.98 in 10.0 mi WNW 11.5 mph - N/A   Overcast
4:20 AM 33.1 °F 24.9 °F 27.0 °F 78% 29.98 in 10.0 mi West 10.4 mph - N/A   Overcast
4:53 AM 34.0 °F 24.6 °F 28.0 °F 79% 30.00 in 10.0 mi West 13.8 mph - N/A   Overcast
5:53 AM 34.0 °F 24.6 °F 28.0 °F 79% 30.02 in 10.0 mi West 13.8 mph 21.9 mph N/A   Overcast
6:53 AM 34.0 °F 24.6 °F 28.0 °F 79% 30.04 in 10.0 mi West 13.8 mph - N/A   Overcast
7:53 AM 34.0 °F 24.6 °F 28.0 °F 79% 30.05 in 10.0 mi West 13.8 mph - N/A   Overcast
8:53 AM 34.0 °F 25.0 °F 28.0 °F 79% 30.09 in 10.0 mi WNW 12.7 mph 21.9 mph N/A   Overcast
9:53 AM 35.1 °F 25.9 °F 28.0 °F 76% 30.10 in 10.0 mi WNW 13.8 mph - N/A   Overcast
10:53 AM 35.1 °F 25.5 °F 27.0 °F 72% 30.14 in 10.0 mi WNW 15.0 mph 26.5 mph N/A   Overcast
11:53 AM 36.0 °F 26.7 °F 27.0 °F 70% 30.14 in 10.0 mi WNW 15.0 mph 20.7 mph N/A   Overcast
12:53 PM 37.0 °F 27.0 °F 27.0 °F 67% 30.15 in 10.0 mi NW 18.4 mph 21.9 mph N/A   Overcast
1:53 PM 37.0 °F 28.1 °F 27.0 °F 67% 30.16 in 10.0 mi WNW 15.0 mph - N/A   Overcast
2:53 PM 36.0 °F 26.7 °F 25.0 °F 64% 30.18 in 10.0 mi WNW 15.0 mph - N/A   Overcast
3:53 PM 35.1 °F 25.2 °F 25.0 °F 67% 30.21 in 10.0 mi NW 16.1 mph 24.2 mph N/A   Overcast
4:53 PM 35.1 °F 27.4 °F 25.0 °F 67% 30.22 in 10.0 mi NW 10.4 mph - N/A   Overcast
5:53 PM 33.1 °F 26.1 °F 27.0 °F 78% 30.25 in 9.0 mi NNW 8.1 mph - N/A   Overcast
6:53 PM 33.1 °F 25.5 °F 27.0 °F 78% 30.27 in 10.0 mi NNW 9.2 mph - N/A   Overcast
7:53 PM 32.0 °F 24.2 °F 27.0 °F 82% 30.29 in 10.0 mi NW 9.2 mph - N/A   Overcast
8:53 PM 32.0 °F 25.6 °F 27.0 °F 82% 30.32 in 10.0 mi NW 6.9 mph - N/A   Overcast
9:53 PM 32.0 °F 24.2 °F 26.1 °F 79% 30.33 in 10.0 mi NW 9.2 mph - N/A   Overcast
10:53 PM 30.9 °F 22.2 °F 26.1 °F 82% 30.34 in 10.0 mi NW 10.4 mph - N/A   Overcast
11:53 PM 30.9 °F 22.8 °F 25.0 °F 79% 30.34 in 10.0 mi NW 9.2 mph - N/A   Overcast